Theta_e
309 310 310 310 310 310 310 310 311 311 311 312 313 314 314 314 314 308 301 308 309 319 320 303 303 302 304 301 301 300 295 292 292 294 298 305 303 306 313 319 323 321 324 328 330
309 309 309 309 309 310 310 310 310 311 311 312 311 312 313 314 307 302 312 322 322 326 308 303 299 298 295 296 298 297 293 295 298 300 300 304 302 307 310 319 319 319 324 330 330
308 308 309 309 309 309 310 310 310 311 311 311 311 311 313 312 302 302 324 322 325 325 309 305 304 298 293 295 294 293 292 298 300 304 304 302 301 307 311 312 323 322 325 327 328
308 308 308 309 309 309 310 310 310 311 311 311 312 312 312 306 288 302 325 329 329 317 306 302 297 292 292 291 296 291 296 298 300 303 302 300 300 308 315 314 327 327 327 327 327
307 307 308 309 309 309 309 310 310 310 311 311 314 313 306 299 298 307 327 325 316 307 302 299 295 292 291 295 295 294 296 298 300 301 302 302 300 300 313 317 328 328 327 326 327
308 307 307 308 308 309 309 310 310 311 311 311 314 312 302 291 304 308 309 313 309 304 301 300 297 297 294 296 294 297 297 297 298 299 301 300 300 298 310 323 327 327 325 326 326
307 308 307 307 307 308 309 309 309 310 310 311 314 310 302 298 307 308 308 305 305 304 303 303 302 298 295 294 299 298 294 296 297 298 296 298 296 297 304 313 324 325 326 326 327
307 307 308 308 308 308 308 308 309 310 311 312 313 307 298 311 309 306 304 303 305 305 305 306 305 300 297 298 297 294 292 289 296 295 298 295 291 297 303 308 315 323 324 325 324
307 308 308 308 308 308 308 308 309 313 312 314 307 304 297 311 303 306 304 302 303 303 304 306 304 298 298 292 289 290 286 287 290 296 294 294 292 297 301 304 311 322 323 324 324
307 308 308 308 308 307 307 308 310 309 305 309 308 295 300 297 302 305 306 306 301 299 299 298 296 293 293 289 282 285 286 285 286 293 294 291 293 297 299 302 302 320 323 324 323
307 307 308 308 308 308 303 298 294 293 296 293 295 296 298 301 304 300 305 302 302 298 289 295 288 287 290 292 292 291 289 287 288 293 293 292 292 294 297 296 299 312 321 322 323
306 307 307 307 307 308 302 296 297 296 290 299 298 297 300 300 293 299 304 295 294 289 292 290 286 292 295 294 292 291 289 288 291 296 293 292 291 296 297 300 297 302 319 321 323
306 306 307 307 307 303 298 299 304 304 291 296 295 296 297 297 292 294 298 295 292 289 290 287 290 294 294 292 291 290 288 288 289 292 294 289 290 292 296 300 301 300 316 322 323
305 306 306 306 301 299 296 304 305 305 284 287 289 294 297 295 292 298 299 295 292 289 291 290 294 292 292 292 292 287 293 292 291 290 285 291 284 290 294 296 297 299 301 319 323
305 305 305 306 297 295 300 304 306 301 272 287 288 297 296 290 291 292 299 293 288 288 292 287 290 289 289 292 294 291 295 293 292 289 287 289 282 286 293 292 293 298 298 320 322
304 305 306 301 298 298 303 305 302 282 271 283 288 287 288 289 290 292 291 294 292 287 293 292 296 293 291 295 296 296 292 291 291 289 282 287 284 283 287 292 296 298 298 316 322
304 305 304 303 294 302 304 299 281 268 285 280 282 286 286 283 286 287 284 283 280 277 280 285 290 295 296 290 294 293 288 281 280 281 280 289 285 286 293 295 301 299 300 313 322
304 305 305 302 301 301 298 284 268 280 280 285 284 284 281 283 284 284 282 278 282 281 279 279 279 288 292 291 289 291 289 282 276 277 282 290 283 286 295 307 310 306 302 306 318
304 299 293 298 301 301 289 273 275 280 283 282 283 279 279 281 282 282 280 278 281 282 277 278 278 287 292 293 295 291 287 290 286 287 281 283 286 295 301 305 307 307 309 314 316
295 295 293 300 301 294 283 279 281 285 285 284 278 280 275 278 279 280 278 281 280 284 285 282 275 286 289 295 294 290 292 284 286 278 276 282 283 285 296 299 302 302 304 312 314
294 288 295 300 298 287 275 279 284 286 286 282 280 278 278 277 279 279 278 282 283 282 283 281 279 281 288 287 284 287 281 285 288 285 279 277 281 295 297 300 299 300 303 309 309
290 281 295 298 284 284 276 284 288 285 287 284 284 282 279 279 278 278 278 281 285 283 277 280 278 275 280 287 288 286 281 283 279 280 284 284 282 298 299 298 299 299 300 305 308
288 286 294 293 275 275 284 285 286 284 283 283 282 283 283 279 276 279 281 286 284 283 278 279 275 272 275 281 283 280 282 283 283 284 282 279 284 298 299 297 298 296 298 301 303
287 279 285 287 286 281 281 282 282 287 285 284 283 284 281 279 281 278 279 283 284 283 287 284 275 272 270 274 279 276 279 281 281 278 277 281 288 294 294 295 296 296 298 298 300
285 280 283 274 279 283 284 283 280 280 285 285 282 281 279 276 278 277 279 280 282 285 282 280 274 276 276 278 279 278 279 280 280 281 278 282 287 291 292 293 296 297 298 298 298
281 279 283 281 283 281 282 279 280 282 282 280 279 282 281 277 279 275 278 277 277 280 279 280 274 276 274 279 280 278 280 280 281 282 284 285 289 294 297 296 295 296 295 294 295
288 288 282 282 280 278 278 280 282 283 284 284 282 281 279 281 282 282 282 282 281 278 277 277 275 274 271 276 276 273 280 282 283 284 283 279 289 292 291 292 291 290 291 291 292
Wind_Speed
25 25 25 26 25 24 23 22 21 20 20 20 19 18 18 18 19 11 11 15 13 15 2 3 5 7 5 6 8 4 7 12 14 15 21 21 6 2 0 6 7 8 9 9 16
28 29 29 28 27 25 24 23 22 21 20 20 20 19 18 17 13 13 16 14 20 9 5 6 7 8 4 5 6 10 10 20 10 15 17 21 6 13 5 9 6 12 20 19 19
29 28 28 28 28 27 26 24 23 21 21 21 20 18 16 13 7 7 2 20 20 14 9 6 10 7 9 7 7 7 17 13 12 23 24 24 14 11 8 9 22 26 28 24 19
28 29 28 28 27 27 24 24 23 22 21 21 19 15 12 5 4 3 5 1 7 12 8 8 7 8 9 12 13 14 14 16 17 21 20 17 9 11 7 6 23 30 30 25 21
30 30 29 29 28 27 25 23 23 21 21 19 14 11 6 3 12 11 1 2 5 3 11 11 10 7 16 12 13 18 17 19 21 23 24 16 17 8 9 7 24 24 23 22 19
29 29 30 29 29 28 26 24 22 19 19 17 12 4 3 4 7 12 17 2 5 7 7 9 9 13 12 15 17 9 16 19 17 19 23 19 17 4 10 17 22 25 23 19 19
29 29 29 28 28 27 26 25 25 21 17 15 9 4 6 15 10 17 14 9 6 6 10 13 16 17 2 18 11 15 16 15 17 19 12 7 15 10 10 14 23 23 21 20 18
30 29 27 26 26 25 27 26 26 23 14 9 4 4 7 8 10 14 12 15 16 18 16 13 16 20 20 10 16 17 11 16 23 9 15 8 18 12 12 12 16 21 19 18 14
30 28 27 26 26 25 27 28 27 14 6 5 2 3 9 11 21 23 9 13 13 14 21 16 16 18 19 16 13 13 19 19 11 11 6 15 16 13 11 11 16 20 21 19 17
30 29 27 26 27 23 24 27 13 4 8 7 7 3 5 17 22 16 17 21 17 14 21 16 13 13 14 14 23 16 15 10 11 15 11 11 15 13 12 12 12 19 21 21 20
30 30 28 26 28 25 11 6 9 8 7 7 15 6 9 18 20 18 18 21 11 16 18 15 12 20 27 25 20 13 14 13 9 10 16 19 14 15 13 7 12 18 21 21 23
31 29 29 26 26 24 5 11 9 1 11 10 7 6 13 14 23 17 21 15 20 20 21 15 20 29 25 17 18 13 19 19 9 20 13 18 18 22 14 16 10 13 23 24 22
30 29 28 29 27 7 8 12 7 6 4 9 18 12 18 16 11 26 21 21 13 18 19 23 26 23 19 20 18 20 20 20 18 13 13 8 17 16 12 14 15 11 23 26 27
31 27 27 28 6 9 4 12 8 6 2 10 17 6 12 13 11 20 21 20 8 16 16 19 24 22 22 24 19 19 25 22 21 14 12 9 14 15 17 18 11 13 13 26 26
31 30 23 18 5 4 10 12 7 2 5 18 16 14 12 18 18 22 24 12 15 19 16 20 18 15 26 25 22 24 15 18 22 18 11 18 3 7 10 7 10 15 10 27 25
31 29 25 8 4 5 15 13 2 5 5 12 20 24 14 15 15 17 21 22 8 12 13 8 17 12 21 21 23 23 16 18 15 15 14 15 7 7 7 11 12 14 11 25 28
33 29 16 3 7 17 12 5 6 8 14 15 26 20 14 17 16 19 25 26 18 16 16 22 10 15 17 17 16 16 17 12 12 12 12 15 6 8 13 7 7 20 18 22 27
33 24 7 1 13 12 5 7 13 12 14 17 19 17 10 20 14 16 11 18 18 19 13 11 12 10 11 9 17 14 18 11 9 6 13 14 6 6 4 6 6 3 13 17 23
25 5 5 12 15 8 6 9 3 9 13 16 14 12 9 17 15 11 6 15 16 17 13 11 11 26 15 19 1 10 14 10 7 5 2 4 5 4 6 8 11 14 17 12 8
6 2 10 15 15 6 7 10 6 12 11 14 14 13 16 18 13 13 12 9 16 14 8 10 13 10 20 15 15 13 8 3 2 6 5 5 7 7 8 7 8 13 15 18 19
4 4 8 14 6 6 5 6 5 13 14 12 13 9 15 18 16 12 5 5 14 13 8 6 6 15 11 15 18 14 13 11 6 3 4 3 6 7 15 16 13 13 16 17 17
5 5 7 7 7 3 3 10 8 12 8 10 9 11 12 16 13 11 13 13 18 12 9 6 4 10 11 11 18 15 18 17 6 8 5 7 7 9 17 12 12 13 15 15 19
5 2 6 6 4 5 6 9 9 9 10 12 7 10 13 12 10 16 14 14 19 17 5 7 6 10 13 9 14 10 21 19 14 9 5 3 1 6 20 15 11 11 12 14 17
3 5 6 5 4 6 5 5 10 10 8 12 9 10 13 10 15 12 17 13 18 20 10 4 3 3 3 9 9 13 20 17 12 3 13 5 6 8 6 15 13 11 14 14 14
5 3 4 5 7 11 6 9 14 13 7 8 6 14 14 12 12 8 15 16 15 12 13 10 7 12 11 17 17 16 16 13 8 11 6 15 9 12 14 5 11 14 15 16 15
4 4 5 5 10 9 8 9 12 13 15 14 13 16 12 11 10 14 12 10 12 13 9 11 7 12 14 12 8 11 16 13 9 12 10 13 4 8 13 9 11 13 14 15 16
4 5 2 6 7 6 7 15 16 17 6 17 15 15 11 9 7 7 8 12 16 17 16 13 8 8 13 12 15 7 2 7 8 8 8 7 7 7 14 13 12 13 15 15 16
Wind_Direction
355 353 350 348 344 340 338 334 329 325 323 320 318 315 315 315 309 287 240 223 196 230 249 341 206 222 254 245 236 224 241 248 249 254 267 279 310 279 198 119 98 139 82 181 139
354 353 350 345 341 338 336 331 326 323 320 316 315 315 314 318 298 254 246 230 219 220 188 235 235 207 224 222 234 207 232 237 249 264 269 278 274 283 147 106 106 136 175 163 143
353 348 345 341 338 335 331 327 323 320 319 316 316 315 316 316 288 240 257 217 224 200 209 207 238 207 207 223 242 247 238 244 246 246 259 273 294 285 141 141 142 137 143 154 151
350 347 343 339 335 330 326 322 320 320 318 317 317 316 317 289 303 50 336 210 188 168 205 236 253 243 229 215 227 246 246 242 255 262 273 279 304 319 159 177 150 147 151 157 154
348 345 342 338 333 327 323 319 315 313 311 317 325 330 317 230 255 282 233 82 130 190 209 213 231 248 246 227 224 229 234 243 245 253 260 270 274 249 231 114 139 141 150 158 156
345 342 339 335 330 326 323 320 314 307 307 314 324 341 280 268 274 337 331 175 238 172 227 235 228 224 274 242 233 232 240 241 243 239 251 252 266 292 219 126 140 148 159 163 166
344 340 336 333 326 325 322 318 312 309 306 307 316 242 269 254 296 308 309 310 278 245 232 221 236 249 239 263 251 251 254 261 250 242 243 232 270 256 241 147 155 159 161 167 172
343 339 335 332 325 327 321 316 310 309 295 281 318 215 255 258 288 323 340 337 329 314 273 248 227 240 247 280 281 254 261 253 250 237 236 169 256 263 244 161 148 162 162 167 178
343 339 335 332 326 328 322 315 305 309 242 200 220 224 284 336 356 342 321 311 300 303 300 281 248 235 245 240 260 245 239 243 251 234 219 203 237 252 242 163 159 166 169 172 180
342 338 335 331 326 332 320 307 307 360 315 157 256 312 317 348 351 343 329 337 303 297 297 271 265 248 241 221 224 223 234 243 231 235 249 232 231 236 240 217 183 174 173 172 179
342 337 335 333 330 329 336 344 15 358 29 297 296 257 301 356 352 325 354 336 340 318 277 278 254 233 232 231 231 224 242 231 257 239 218 237 223 223 229 200 224 171 175 176 178
343 339 334 336 331 322 358 35 34 349 311 299 330 40 21 359 331 3 337 343 320 292 319 271 242 239 236 242 227 233 236 247 247 234 208 230 231 214 205 226 201 187 179 179 176
343 340 335 332 326 338 49 23 352 30 250 297 29 16 354 3 327 351 355 313 284 285 276 267 254 255 234 238 227 225 233 245 240 267 249 212 229 212 218 204 225 205 184 178 175
342 341 335 337 7 321 25 349 323 84 11 14 18 351 352 12 1 354 334 300 254 254 253 260 257 240 221 237 225 230 230 242 257 249 254 242 242 206 199 207 216 226 187 183 179
340 337 335 329 261 358 308 315 314 80 73 327 1 314 350 26 324 358 349 326 359 323 249 245 256 223 242 218 229 242 234 233 242 254 257 273 155 230 155 213 229 233 197 180 179
339 333 334 330 325 284 313 305 98 40 1 352 347 326 346 12 4 350 16 5 15 335 319 283 266 283 242 235 224 239 247 258 250 240 246 243 166 265 192 204 235 238 211 177 184
339 328 326 306 309 312 312 2 47 74 350 343 334 341 352 5 360 11 14 24 20 344 349 316 284 261 251 252 250 228 226 236 243 242 237 229 205 226 217 203 225 223 227 182 175
337 322 293 223 326 331 351 56 60 359 5 329 334 350 360 355 353 10 21 25 23 10 302 333 332 16 9 279 240 237 229 210 217 201 230 236 195 239 228 94 34 61 217 179 176
331 330 355 332 335 344 45 51 70 359 351 341 342 352 352 352 340 356 60 23 17 22 352 343 293 327 347 330 5 283 237 199 219 224 188 195 287 23 124 75 64 42 68 67 107
319 293 2 332 332 25 50 73 44 19 354 356 357 351 2 345 349 357 10 20 4 28 14 337 293 316 329 331 32 26 347 297 166 189 220 259 202 212 134 124 87 78 68 75 73
348 56 313 335 23 30 70 62 8 20 1 359 339 354 7 340 339 346 16 8 5 355 23 13 299 314 312 37 17 11 17 345 314 152 205 256 261 1 173 156 129 98 85 90 87
317 47 302 5 41 355 12 26 27 32 355 360 341 8 4 347 332 348 355 34 5 1 358 340 313 308 290 337 30 83 33 14 360 326 311 188 262 335 99 78 86 83 85 90 97
323 2 336 37 60 342 356 6 13 30 12 351 350 356 0 352 335 327 353 10 8 2 7 325 335 330 350 26 23 12 351 349 322 255 23 307 166 34 101 92 78 77 77 79 88
359 1 342 7 338 343 342 342 1 358 2 344 351 353 349 343 329 332 348 347 354 338 338 334 341 114 283 269 271 308 323 333 339 337 329 4 345 113 67 105 100 79 76 76 77
22 354 49 328 328 324 343 6 354 341 3 336 347 345 340 329 325 343 337 335 340 332 330 3 320 307 323 306 289 284 307 316 326 314 313 306 331 346 335 76 94 91 83 80 74
58 19 347 282 315 341 10 352 328 347 346 344 332 332 330 317 345 327 330 324 305 308 317 304 285 313 299 296 321 314 295 289 272 293 308 330 40 354 321 88 83 81 79 77 72
335 319 57 288 327 352 340 330 329 344 340 324 319 324 320 331 326 295 284 284 272 275 278 273 274 297 291 317 315 309 311 18 15 58 304 14 358 39 354 48 66 73 70 67 66